TimeEST,TemperatureF,Dew PointF,Humidity,Sea Level PressureIn,VisibilityMPH,Wind Direction,Wind SpeedMPH,Gust SpeedMPH,PrecipitationIn,Events,Conditions,WindDirDegrees,DateUTC
12:15 AM,50.7,50.4,99,29.70,4.0,Calm,Calm,-,N/A,,Overcast,0,2012-12-18 05:15:00
12:35 AM,51.1,50.9,99,29.70,7.0,Calm,Calm,-,N/A,,Overcast,0,2012-12-18 05:35:00
12:55 AM,50.7,50.2,98,29.70,4.0,Calm,Calm,-,N/A,,Overcast,0,2012-12-18 05:55:00
1:15 AM,50.7,50.7,100,29.69,4.0,SSW,3.5,-,N/A,,Overcast,200,2012-12-18 06:15:00
1:35 AM,50.9,50.5,99,29.70,4.0,Calm,Calm,-,N/A,,Overcast,0,2012-12-18 06:35:00
1:55 AM,50.5,50.5,100,29.69,5.0,Calm,Calm,-,N/A,,Mostly Cloudy,0,2012-12-18 06:55:00
2:15 AM,50.2,50.0,99,29.69,2.0,Calm,Calm,-,N/A,,Scattered Clouds,0,2012-12-18 07:15:00
2:35 AM,48.0,47.8,99,29.70,1.0,West,3.5,-,N/A,,Mist,280,2012-12-18 07:35:00
2:55 AM,49.3,49.3,100,29.69,5.0,Calm,Calm,-,N/A,,Scattered Clouds,0,2012-12-18 07:55:00
3:15 AM,49.1,49.1,100,29.68,1.2,Calm,Calm,-,N/A,,Mist,0,2012-12-18 08:15:00
3:35 AM,46.8,46.8,100,29.69,0.5,Calm,Calm,-,N/A,Fog,Fog,0,2012-12-18 08:35:00
3:55 AM,46.9,46.9,100,29.68,0.2,Calm,Calm,-,N/A,Fog,Fog,0,2012-12-18 08:55:00
4:15 AM,45.9,45.9,100,29.68,0.5,Calm,Calm,-,N/A,Fog,Fog,0,2012-12-18 09:15:00
4:35 AM,46.0,46.0,100,29.68,0.8,Calm,Calm,-,N/A,,Overcast,0,2012-12-18 09:35:00
4:55 AM,44.8,44.8,100,29.68,1.0,Calm,Calm,-,N/A,,Overcast,0,2012-12-18 09:55:00
5:15 AM,45.0,45.0,100,29.69,2.5,Calm,Calm,-,N/A,,Overcast,0,2012-12-18 10:15:00
5:35 AM,43.9,43.9,100,29.69,3.0,Calm,Calm,-,N/A,,Overcast,0,2012-12-18 10:35:00
5:55 AM,45.0,45.0,100,29.70,10.0,Calm,Calm,-,N/A,,Mostly Cloudy,0,2012-12-18 10:55:00
6:15 AM,44.6,44.6,100,29.71,7.0,WNW,3.5,-,N/A,,Mostly Cloudy,290,2012-12-18 11:15:00
7:15 AM,44.1,44.1,100,29.73,10.0,Calm,Calm,-,N/A,,Clear,0,2012-12-18 12:15:00
7:35 AM,43.3,43.3,100,29.74,7.0,Calm,Calm,-,N/A,,Clear,0,2012-12-18 12:35:00
7:55 AM,43.9,43.9,100,29.75,10.0,Calm,Calm,-,N/A,,Clear,0,2012-12-18 12:55:00
8:15 AM,45.9,42.8,89,29.76,10.0,West,5.8,-,N/A,,Clear,270,2012-12-18 13:15:00
8:35 AM,47.8,41.0,77,29.77,10.0,WSW,3.5,-,N/A,,Clear,250,2012-12-18 13:35:00
8:55 AM,49.5,37.4,63,29.77,10.0,West,8.1,-,N/A,,Clear,280,2012-12-18 13:55:00
9:15 AM,50.4,37.0,60,29.78,10.0,West,5.8,-,N/A,,Clear,260,2012-12-18 14:15:00
9:35 AM,51.8,36.5,56,29.79,10.0,West,5.8,-,N/A,,Scattered Clouds,280,2012-12-18 14:35:00
9:55 AM,52.9,36.1,53,29.79,10.0,West,5.8,-,N/A,,Scattered Clouds,280,2012-12-18 14:55:00
10:15 AM,54.0,35.6,50,29.79,10.0,WNW,6.9,-,N/A,,Clear,290,2012-12-18 15:15:00
10:35 AM,54.5,34.0,46,29.80,10.0,WNW,8.1,-,N/A,,Scattered Clouds,300,2012-12-18 15:35:00
10:55 AM,54.3,33.6,46,29.81,10.0,West,10.4,-,N/A,,Scattered Clouds,280,2012-12-18 15:55:00
11:15 AM,55.0,33.4,44,29.82,10.0,West,8.1,-,N/A,,Clear,280,2012-12-18 16:15:00
11:35 AM,55.6,32.9,42,29.82,10.0,WNW,10.4,-,N/A,,Clear,300,2012-12-18 16:35:00
11:55 AM,55.9,33.3,42,29.82,10.0,West,8.1,-,N/A,,Clear,280,2012-12-18 16:55:00
12:15 PM,56.1,33.1,42,29.82,10.0,WNW,13.8,23.0,N/A,,Clear,300,2012-12-18 17:15:00
12:35 PM,55.2,32.9,43,29.82,10.0,West,12.7,24.2,N/A,,Clear,280,2012-12-18 17:35:00
12:55 PM,55.2,32.5,42,29.82,10.0,West,10.4,21.9,N/A,,Clear,260,2012-12-18 17:55:00
1:15 PM,56.3,31.6,39,29.82,10.0,West,11.5,-,N/A,,Clear,270,2012-12-18 18:15:00
1:35 PM,57.0,30.6,37,29.83,10.0,West,10.4,16.1,N/A,,Clear,280,2012-12-18 18:35:00
1:55 PM,56.7,29.7,36,29.83,10.0,WNW,13.8,20.7,N/A,,Clear,300,2012-12-18 18:55:00
2:15 PM,57.4,29.8,35,29.84,10.0,West,11.5,-,N/A,,Clear,280,2012-12-18 19:15:00
2:35 PM,57.2,28.8,34,29.84,10.0,WNW,12.7,19.6,N/A,,Clear,300,2012-12-18 19:35:00
2:55 PM,57.0,29.1,35,29.85,10.0,WNW,10.4,18.4,N/A,,Clear,290,2012-12-18 19:55:00
3:15 PM,57.4,29.1,34,29.86,10.0,WNW,6.9,-,N/A,,Clear,290,2012-12-18 20:15:00
3:35 PM,57.2,29.5,35,29.85,10.0,West,6.9,-,N/A,,Clear,270,2012-12-18 20:35:00
3:55 PM,56.5,28.2,34,29.87,10.0,West,6.9,-,N/A,,Clear,270,2012-12-18 20:55:00
4:15 PM,55.8,27.5,34,29.88,10.0,West,9.2,-,N/A,,Clear,280,2012-12-18 21:15:00
4:35 PM,55.6,27.0,33,29.87,10.0,WNW,6.9,16.1,N/A,,Clear,300,2012-12-18 21:35:00
4:55 PM,54.5,27.5,35,29.88,10.0,WNW,8.1,-,N/A,,Clear,300,2012-12-18 21:55:00
5:15 PM,51.3,28.4,41,29.90,10.0,West,4.6,-,N/A,,Clear,270,2012-12-18 22:15:00
5:35 PM,52.5,26.4,36,29.90,10.0,WNW,3.5,-,N/A,,Clear,300,2012-12-18 22:35:00
5:55 PM,52.2,24.1,34,29.90,10.0,NNW,10.4,-,N/A,,Clear,340,2012-12-18 22:55:00
6:15 PM,50.0,25.0,38,29.91,10.0,WNW,6.9,-,N/A,,Clear,290,2012-12-18 23:15:00
6:35 PM,49.3,24.4,38,29.91,10.0,WNW,6.9,-,N/A,,Clear,290,2012-12-18 23:35:00
6:55 PM,49.1,24.1,38,29.92,10.0,Calm,Calm,-,N/A,,Clear,0,2012-12-18 23:55:00
7:15 PM,49.1,24.3,38,29.94,10.0,Calm,Calm,-,N/A,,Clear,0,2012-12-19 00:15:00
7:35 PM,46.2,25.2,44,29.94,10.0,Calm,Calm,-,N/A,,Clear,0,2012-12-19 00:35:00
7:55 PM,47.7,25.2,41,29.94,10.0,Calm,Calm,-,N/A,,Clear,0,2012-12-19 00:55:00
8:15 PM,46.8,25.5,43,29.94,10.0,Calm,Calm,-,N/A,,Clear,0,2012-12-19 01:15:00
8:35 PM,45.5,25.7,46,29.94,10.0,Calm,Calm,-,N/A,,Clear,0,2012-12-19 01:35:00
8:55 PM,46.9,25.7,44,29.94,10.0,SW,3.5,-,N/A,,Clear,220,2012-12-19 01:55:00
9:15 PM,45.3,26.2,47,29.94,10.0,Calm,Calm,-,N/A,,Clear,0,2012-12-19 02:15:00
9:35 PM,44.2,26.4,50,29.94,10.0,Calm,Calm,-,N/A,,Clear,0,2012-12-19 02:35:00
9:55 PM,41.5,27.7,58,29.94,10.0,NW,5.8,-,N/A,,Clear,320,2012-12-19 02:55:00
10:15 PM,40.5,28.4,62,29.94,10.0,West,4.6,-,N/A,,Clear,280,2012-12-19 03:15:00
10:35 PM,40.5,28.2,62,29.94,10.0,WNW,3.5,-,N/A,,Clear,300,2012-12-19 03:35:00
10:55 PM,41.0,27.9,60,29.94,10.0,Calm,Calm,-,N/A,,Clear,0,2012-12-19 03:55:00
11:15 PM,40.1,27.9,62,29.94,10.0,Calm,Calm,-,N/A,,Clear,0,2012-12-19 04:15:00
11:35 PM,38.7,28.0,66,29.94,10.0,Calm,Calm,-,N/A,,Clear,0,2012-12-19 04:35:00
11:55 PM,37.0,28.0,70,29.94,10.0,Calm,Calm,-,N/A,,Clear,0,2012-12-19 04:55:00